This is the latest recevied weather packets stored in our database for station/object KB0Y. If no packets are shown the sender has not sent any weather packets the latest 10 day(s).
| Time | Temp. | Humidity | Pressure | Rain* | Wind** | Luminosity | Snow |
|---|---|---|---|---|---|---|---|
| 1778170789 | 23.89° C | 97% | 1021 hPa | 0 mm | - | 92 W/m² | - |
| 1778170485 | 23.33° C | 97% | 1020.6 hPa | 0 mm | - | 105 W/m² | - |
| 1778170182 | 23.33° C | 98% | 1020 hPa | 0 mm | - | 147 W/m² | - |
| 1778169878 | 23.33° C | 98% | 1020 hPa | 0 mm | - | 173 W/m² | - |
| 1778169574 | 23.33° C | 99% | 1020 hPa | 0 mm | - | 178 W/m² | - |
| 1778169270 | 23.33° C | 99% | 1019.6 hPa | 0 mm | - | 132 W/m² | - |
| 1778168967 | 22.78° C | 99% | 1020 hPa | 0 mm | - | 130 W/m² | - |
| 1778168664 | 22.78° C | 99% | 1020 hPa | 0 mm | - | 185 W/m² | - |
| 1778168361 | 22.78° C | 99% | 1020 hPa | 0 mm | - | 196 W/m² | - |
| 1778168058 | 22.78° C | 99% | 1020.3 hPa | 0 mm | - | 182 W/m² | - |
| 1778167754 | 22.78° C | 99% | 1020 hPa | 0 mm | - | 194 W/m² | - |
| 1778167450 | 22.22° C | 99% | 1020.3 hPa | 0 mm | - | 226 W/m² | - |
| 1778167146 | 22.22° C | 99% | 1020.3 hPa | 0 mm | - | 259 W/m² | - |
| 1778166843 | 22.22° C | 99% | 1020 hPa | 0 mm | - | 208 W/m² | - |
| 1778166540 | 21.67° C | 99% | 1020.3 hPa | 0 mm | - | 161 W/m² | - |
| 1778166237 | 21.67° C | 99% | 1020.6 hPa | 0 mm | - | 190 W/m² | - |
| 1778165933 | 21.67° C | 99% | 1020.6 hPa | 0 mm | - | 228 W/m² | - |
| 1778165629 | 21.67° C | 99% | 1021 hPa | 0 mm | - | 181 W/m² | - |
| 1778165326 | 21.67° C | 99% | 1021 hPa | 0 mm | - | 70 W/m² | - |
| 1778165024 | 21.67° C | 99% | 1021 hPa | 0 mm | - | 58 W/m² | - |
| 1778164720 | 21.67° C | 99% | 1021 hPa | 0 mm | - | 60 W/m² | - |
| 1778164417 | 21.67° C | 99% | 1021 hPa | 0 mm | - | 83 W/m² | - |
| 1778164113 | 21.67° C | 99% | 1021 hPa | 0 mm | - | 67 W/m² | - |
| 1778163810 | 21.67° C | 99% | 1021 hPa | 0 mm | - | 75 W/m² | - |
| 1778163507 | 21.11° C | 99% | 1020.6 hPa | 0 mm | - | 74 W/m² | - |
* Rain latest hour (hover to see other rain measurements)
** Current wind speed in m/s (hover to see current wind gust speed)